星链-11132 [DTC] (STARLINK-11132 [DTC] )

导读 | 星芒AI

STARLINK-11132 [DTC] 是SpaceX星链计划中的一颗低轨通信卫星,属于第5批发射的星链卫星群。该卫星部署在约550公里高度的近地轨道,旨在为全球用户提供高速互联网服务。其采用先进的相控阵天线和激光通信技术,具备高带宽和低延迟特性。该卫星由SpaceX自主研制,于2020年11月发射,是星链星座的重要组成部分,助力实现全球宽带覆盖目标。

基本信息
目录编号:
59755
目录名称:
STARLINK-11132
国际标识:
2024-091C
轨道中心:
EARTH
卫星名称:
星链-11132 [DTC]
卫星全名:
星链-11132 [DTC] (STARLINK-11132 [DTC] )
卫星状态:
在轨 (已飞行533 天)
发射日期:
2024-05-14 UTC
国别 :
美国 (US)
星等 :
--
轨道信息
数据来源 国际轨道数据
星历时间: 2025-10-28T20:47:26+0800
21小时前
查看轨道信息
半长轴: 6737.779km
偏心率: 0.0000655
轨道倾角: 53.159°
近地点辐角 88.913°
升交点赤经 137.970°
平近点角 271.197°
近地点: 359.202km
远地点: 360.086km
周期: 91.735分钟
每日圈数: 15.697399
详细信息
固有亮度:
5
最大亮度:
0.6
卫星平台:
Starlink v2.0 mini
覆盖范围:
全球
运营商:
太空探索技术公司
运营商所在国:
美国
制造商(研发单位):
太空探索技术公司
制造商所在国:
美国
使用方式:
暂无
卫星简介
星链(Starlink)计划是由太空探索技术公司(SpaceX)提出的一个巨型低轨卫星互联网星座项目,计划在2019年至2024年间在太空搭建由约1.2万颗卫星组成的“星链”网络,其中1584颗将部署在地球上空550千米处的近地轨道,并从2020年开始工作。该卫星仍在工作。
2D轨道图
3D轨道图
轨道高度分析图
轨道倾角分析图
轨道综合分析图
查看轨道综合分析图